Weather observations for the past three days for
Ormond Beach, Ormond Beach Municipal Airport
Metric (Imperial)
Date Time (edt) Wind (kph) Vis. (km) Weather Sky Cond. Temperature (ºC) Relative Humidity Wind Chill (°C) Heat Index (°C) Pressure Precipitation (cm)
Air Dwpt 6 hour altimeter (cm) sea level (mb) 1 hr 3 hr 6 hr
Max. Min.
01 13:50 NE 22 11.27 Fair CLR 30 27 84% 39 76.3 0.0
01 12:50 NE 20 G 30 11.27 Mostly Cloudy BKN019 30 27 84% 39 76.35 0.0
01 11:50 NE 20 G 30 11.27 Mostly Cloudy BKN019 30 27 84% 39 76.38 0.0
01 10:50 NE 15 11.27 Partly Cloudy SCT021 30 27 84% 39 76.35 0.0
01 09:50 NE 13 11.27 A Few Clouds FEW019 29 26 84% 36 76.33 0.0
01 08:50 NE 7 11.27 Fair CLR 27 27 100% 32 76.3 0.0
01 07:50 Calm 11.27 A Few Clouds FEW060 25 25 100% 25 76.28 0.0
01 06:50 Calm 11.27 A Few Clouds FEW050 24 24 100% 23 76.23 0.0
31 18:50 NE 24 11.27 Fair CLR 29 27 89% 37 76.28 0.0
31 17:50 NE 24 11.27 Mostly Cloudy BKN016 29 28 94% 38 76.28 0.0
31 16:50 NE 24 G 33 11.27 Mostly Cloudy BKN016 29 28 94% 38 76.3 0.0
31 15:50 NE 22 G 33 11.27 Partly Cloudy SCT017 30 28 89% 40 76.28 0.0
31 14:50 NE 22 G 33 11.27 Showers in Vicinity SCT020 31 28 84% 42 76.3 0.0
31 13:50 E 19 11.27 Partly Cloudy SCT035 31 27 79% 41 76.33 0.0
31 12:50 NE 19 11.27 Mostly Cloudy BKN030 31 27 79% 41 76.38 0.0
31 11:50 NE 11 11.27 Mostly Cloudy BKN024 30 28 89% 40 76.43 0.0
31 10:50 E 11 9.66 Light Rain BKN024 28 27 94% 35 76.4 0.0
31 09:50 E 7 11.27 Mostly Cloudy BKN020 29 28 94% 38 76.35 0.0
31 06:50 Calm 11.27 Fair CLR 24 24 100% 23 76.28 0.0
30 18:50 NE 19 11.27 Fair CLR 28 27 94% 35 76.28 0.0
30 17:50 NE 19 11.27 Fair CLR 29 27 89% 37 76.28 0.0
30 16:50 NE 19 11.27 Fair CLR 30 27 84% 39 76.28 0.0
30 15:50 NE 19 G 28 11.27 Fair CLR 31 27 79% 41 76.33 0.0
30 14:50 NE 19 G 28 11.27 Fair CLR 31 27 79% 41 76.35 0.0
30 13:50 NE 19 11.27 Fair CLR 31 27 79% 41 76.4 0.0
30 12:50 NE 19 11.27 Partly Cloudy SCT025 31 27 79% 41 76.45 0.0
30 11:50 NE 9 11.27 Mostly Cloudy BKN025 30 27 84% 39 76.43 0.0
30 09:50 NE 9 11.27 A Few Clouds FEW017 28 27 94% 35 76.45 0.0
30 08:50 NW 9 11.27 Fair CLR 28 27 94% 35 76.45 0.0
30 07:50 Calm 11.27 Fair CLR 24 24 100% 23 76.38 0.0
30 06:50 Calm 11.27 Fair CLR 24 24 100% 23 76.33 0.0
30 06:15 Calm 11.27 Fair CLR 24 24 100% 23 76.33 0.0
29 18:50 SE 11 11.27 Partly Cloudy SCT040 28 25 84% 33 76.33 0.0
29 17:50 E 13 11.27 Partly Cloudy SCT030 29 25 79% 35 76.33 0.0
29 16:50 E 22 11.27 Partly Cloudy SCT030 31 28 84% 42 76.35 0.0
29 15:50 NE 19 11.27 A Few Clouds FEW030 31 27 79% 41 76.38 0.0
29 14:50 NE 19 G 30 11.27 A Few Clouds FEW030 31 27 79% 41 76.35 0.0
Date Time (edt) Wind (kph) Vis. (km) Weather Sky Cond. Air Dwpt Max. Min. Relative Humidity Wind Chill (°C) Heat Index (°C) altimeter (cm) sea level (mb) 1 hr 3 hr 6 hr
6 hour
Temperature (ºC) Pressure Precipitation (cm)